Sigfox identifier Datetime Temperature Humidity SNR
003BD320 2018-10-09 08:45:49 21.2 37 10.8
003BD320 2018-10-09 06:30:45 21.3 37 10.8
003BD320 2018-10-09 05:23:15 21.2 37 10.7
003BD320 2018-10-09 00:53:18 21.2 36 11.1
003BD320 2018-10-08 22:38:18 21.2 36 11
003BD320 2018-10-08 21:30:45 21.2 36 11.2
003BD320 2018-10-08 20:23:11 21.3 36 11
003BD320 2018-10-08 17:00:37 21 36 10.9
003BD320 2018-10-08 15:53:06 21 36 11.1
003BD320 2018-10-08 12:30:35 20.8 36 10.9
003BD320 2018-10-08 11:23:06 20.8 37 10.9
003BD320 2018-10-08 10:15:35 20.8 37 10.9
003BD320 2018-10-08 08:00:28 20.8 37 11
003BD320 2018-10-08 06:52:57 20.8 37 11.1
003BD320 2018-10-08 05:45:24 20.8 37 17.2
003BD320 2018-10-08 04:37:56 20.8 37 17.2
003BD320 2018-10-08 03:30:26 20.8 37 17.3
003BD320 2018-10-08 02:22:55 20.8 37 17.2
003BD320 2018-10-08 01:15:25 20.8 37 17.3
003BD320 2018-10-08 00:07:42 20.9 38 17.3
003BD320 2018-10-07 23:00:10 20.9 38 17.2
003BD320 2018-10-07 21:52:34 20.9 38 17.2
003BD320 2018-10-07 20:45:02 20.9 38 17.4
003BD320 2018-10-07 19:37:30 20.9 38 17.3
003BD320 2018-10-07 18:29:51 20.9 38 17.3
003BD320 2018-10-07 17:22:17 20.9 38 17.3
003BD320 2018-10-07 16:14:48 20.9 38 17.3
003BD320 2018-10-07 15:07:15 21 38 17.4
003BD320 2018-10-07 13:59:37 21 38 17.3
003BD320 2018-10-07 12:52:03 21 38 17.3
003BD320 2018-10-07 11:44:29 21 38 17.2
003BD320 2018-10-07 10:36:57 21 38 17.3
003BD320 2018-10-07 09:29:28 21 38 17.3
003BD320 2018-10-07 08:21:52 21 38 17.3
003BD320 2018-10-07 07:14:18 21 38 17.3
003BD320 2018-10-07 06:06:46 21 38 17.3
003BD320 2018-10-07 03:51:33 21.1 38 17.3
003BD320 2018-10-07 02:44:00 21 38 17.2
003BD320 2018-10-07 01:36:25 21 38 17.2
003BD320 2018-10-07 00:28:51 21.1 38 11
003BD320 2018-10-06 23:21:20 21.1 38 11
003BD320 2018-10-06 22:13:50 21.1 38 10.9
003BD320 2018-10-06 21:06:26 21.2 38 10.8
003BD320 2018-10-06 19:58:50 21.2 38 10.5
003BD320 2018-10-06 18:51:19 21.2 38 10.7
003BD320 2018-10-06 17:43:43 21.2 38 10.6
003BD320 2018-10-06 16:36:10 21.2 38 10.8
003BD320 2018-10-06 15:28:40 21.2 38 10.8
003BD320 2018-10-06 14:21:09 21.2 38 10.9
003BD320 2018-10-06 13:13:35 21.2 38 11
003BD320 2018-10-06 12:06:02 21.2 38 11.1
003BD320 2018-10-06 10:58:27 21.2 39 11.1
003BD320 2018-10-06 09:50:55 21.3 39 10.7
003BD320 2018-10-06 08:43:21 21.3 39 11
003BD320 2018-10-06 07:35:45 21.3 39 17.2
003BD320 2018-10-06 06:28:12 21.3 39 17.2
003BD320 2018-10-06 05:20:44 21.3 39 17.2
003BD320 2018-10-06 04:13:15 21.3 39 17.2
003BD320 2018-10-06 03:05:44 21.3 39 17.2
003BD320 2018-10-06 01:58:13 21.4 39 17.2
003BD320 2018-10-06 00:50:37 21.4 39 17.3
003BD320 2018-10-05 23:43:07 21.5 38 17.3
003BD320 2018-10-05 22:35:31 21.4 38 17.3
003BD320 2018-10-05 21:27:55 21.5 38 17.4
003BD320 2018-10-05 20:20:22 21.5 38 17.5
003BD320 2018-10-05 19:12:47 21.4 38 17.5
003BD320 2018-10-05 18:05:15 21.4 38 17.6
003BD320 2018-10-05 16:57:48 21.4 38 17.7
003BD320 2018-10-05 15:50:14 21.3 37 17.7
003BD320 2018-10-05 14:42:42 21.3 37 17.9
003BD320 2018-10-05 11:20:16 21 35 18.2
003BD320 2018-10-05 10:12:47 20.9 34 18.1
003BD320 2018-10-05 09:05:17 20.8 33 18.2
003BD320 2018-10-05 07:57:51 20.8 31 18.3
003BD320 2018-10-05 06:50:19 20.8 31 18.3
003BD320 2018-10-05 05:42:47 20.8 31 18.4
003BD320 2018-10-05 04:35:15 20.8 31 18.4
003BD320 2018-10-05 02:20:11 20.9 31 19.3
003BD320 2018-10-05 01:12:43 21 32 19.4
003BD320 2018-10-05 00:05:06 21 32 16.7
003BD320 2018-10-04 22:57:33 21 32 16.7
003BD320 2018-10-04 19:35:02 20.8 31 16.7
003BD320 2018-10-04 18:27:27 20.8 32 16.7
003BD320 2018-10-04 16:12:20 20.6 32 16.6
003BD320 2018-10-04 13:57:12 20.6 33 16.6
003BD320 2018-10-04 12:49:43 20.4 33 16.6
003BD320 2018-10-04 11:42:04 20.2 32 16.7
003BD320 2018-10-04 09:26:48 20 33 16.6
003BD320 2018-10-04 08:19:19 20 34 16.6
003BD320 2018-10-04 07:11:47 20.1 37 16.4
003BD320 2018-10-04 06:04:07 20.1 37 16.5
003BD320 2018-10-04 04:56:33 20.2 38 16.4
003BD320 2018-10-04 03:49:02 20.2 38 16.4
003BD320 2018-10-04 02:41:24 20.2 39 16.4
003BD320 2018-10-04 01:33:52 20.2 39 16
003BD320 2018-10-04 00:26:19 20.2 40 15.5
003BD320 2018-10-03 23:18:46 20.2 40 15.8
003BD320 2018-10-03 22:11:10 20.2 41 15.6
003BD320 2018-10-03 21:03:35 20.2 41 15.5
003BD320 2018-10-03 19:56:05 20.2 41 15.7
003BD320 2018-10-03 18:48:31 20.2 41 15.6
003BD320 2018-10-03 17:41:00 20.2 42 15.7
003BD320 2018-10-03 16:33:23 20.3 44 12.6
003BD320 2018-10-03 15:25:51 20.3 44 12.2
003BD320 2018-10-03 14:18:19 20.2 43 12.4
003BD320 2018-10-03 13:10:41 20.2 42 12.5
003BD320 2018-10-03 12:03:11 20.2 41 12.5
003BD320 2018-10-03 09:48:01 20.2 41 12.5
003BD320 2018-10-03 08:40:24 20.1 38 12.7
003BD320 2018-10-03 07:32:44 20.2 39 12.9
003BD320 2018-10-03 06:25:12 20.2 40 12.8
003BD320 2018-10-03 05:17:40 20.2 41 12.8
003BD320 2018-10-03 04:10:03 20.2 41 12.9
003BD320 2018-10-03 03:02:29 20.2 41 13.1
003BD320 2018-10-03 01:54:54 20.2 41 13.5
003BD320 2018-10-03 00:47:15 20.2 41 13.5
003BD320 2018-10-02 23:39:40 20.2 41 13.1
003BD320 2018-10-02 22:31:59 20.2 41 13.4
003BD320 2018-10-02 21:24:21 20.2 41 14.2
003BD320 2018-10-02 20:16:48 20.3 41 15.2
003BD320 2018-10-02 19:09:15 20.2 41 16.8
003BD320 2018-10-02 18:01:38 20.4 41 15.6
003BD320 2018-10-02 15:46:16 19.5 50 0